Regional Weather Roundup
Issued by NWS

Home | Current Version | Previous Version | Graphics & Text | Print | Product List | Glossary On
Versions: 1 2 3 4 5 6 7 8 9 10 11 12 13 14 15 16 17 18 19 20 21 22 23 24 25 26 27 28 29 30 31 32 33 34 35 36 37 38 39 40 41 42 43 44 45 46 47 48 49 50
000
ASUS45 KSLC 202110
RWRUT

UTAH REGIONAL WEATHER ROUNDUP
NATIONAL WEATHER SERVICE SALT LAKE CITY UT
200 PM MST SAT DEC 20 2014

UTZ001>011-023>025-202200-

NORTHERN UTAH

CITY           SKY/WX    TMP DP  RH WIND       PRES   REMARKS
BRIGHAM CITY   CLOUDY    39  35  86 S8        30.07F WCI  34
HILL AFB       CLOUDY    36  36 100 E6        30.07F WCI  31
LOGAN          CLOUDY    38  35  89 NE5       30.05F WCI  34
OGDEN          LGT RAIN  37  35  92 SE8       30.07F WCI  31
PROVO AIRPORT  CLOUDY    39  34  81 CALM      30.11F
SALT LAKE CITY LGT RAIN  39  35  86 CALM      30.08F
VERNAL         LGT SNOW  30  24  78 E7        30.10F WCI  23
WENDOVER       CLOUDY    37  28  70 S3        30.07F
HEBER CITY     FLURRIES  34  32  93 W8        30.05F WCI  27
WEST JORDAN    CLOUDY    37  37 100 S10       30.09F WCI  30

$$

UTZ012>022-026-027-202200-

SOUTHERN/CENTRAL UTAH

CITY           SKY/WX    TMP DP  RH WIND       PRES   REMARKS
BLANDING       CLOUDY    34  31  90 W3        30.20S
BRYCE CANYON   PTSUNNY   32  24  72 SE8       30.10F WCI  25
CEDAR CITY     CLOUDY    42  28  57 S12       30.08S
DELTA          CLOUDY    41  30  65 CALM      30.09S
MILFORD        CLOUDY    41  29  62 S16       30.06F
MOAB/CYNLANDS  CLOUDY    37  32  82 NW3       30.12F
PRICE          CLOUDY    32  24  72 CALM      30.11F
ST GEORGE      CLOUDY    46  30  53 NW5       30.15F
KANAB          PTSUNNY   43  32  65 S6        30.15F

$$

REGIONAL REPORTS     COLORADO/ARIZONA

CITY           SKY/WX    TMP DP  RH WIND       PRES   REMARKS
CRAIG, CO      CLOUDY    33  25  72 E5        30.07F WCI  29
GRAND JUNCTION PTSUNNY   38  25  59 CALM      30.12F
RIFLE          CLOUDY    34  23  64 CALM      30.11F
MONTROSE       SUNNY     39  22  50 NW7       30.11S WCI  34
CORTEZ         SUNNY     40  28  62 W5        30.11F
PAGE, AZ       CLOUDY    40  30  67 W5        30.14F
GRAND CANYON   PTSUNNY   43  23  45 SW8       30.13F
KINGMAN        MOSUNNY   55  31  39 NW7       30.12F
FLAGSTAFF      PTSUNNY   44  29  55 SW13      30.12F

$$

REGIONAL REPORTS    NEVADA/IDAHO/WYOMING

CITY           SKY/WX    TMP DP  RH WIND       PRES   REMARKS
LAS VEGAS, NV  PTSUNNY   55  36  48 S3        30.08F
ELY            CLOUDY    39  29  67 N7        30.09F WCI  34
ELKO           CLOUDY    37  35  92 SW3       30.06F
POCATELLO, ID  PTSUNNY   41  35  79 S15       30.01S
BURLEY         CLOUDY    42  35  76 S15       29.98F
EVANSTON, WY   LGT SNOW  31  30  96 SW15      30.01F FOG     WCI  20
ROCK SPRINGS   LGT SNOW  31  29  92 SW13      30.00S VSB 3/4 WCI  21
KEMMERER       LGT SNOW  32  30  93 SW17      29.99F WCI  21

$$



USA.gov is the U.S. government's official web portal to all federal, state and local government web resources and services.